User: anonymous
Location: Holcomb Observatory
(44.4922°N, 73.1654°W)
Time: 16:00:34
(UTC-04:00)
Language:

SL-16 R/B - Orbit

View from above orbital plane
View from above orbital plane
View from above satellite
View from above satellite

Ground track
Ground track

The orbit data is extracted from the following two-line orbital elements,

1 27006U 01056F   14261.11989322  .00000021  00000-0  70435-4 0  2300
2 27006 099.1752 064.7895 0015170 052.2241 057.7864 13.70920217639051
Epoch (UTC): 18 September 2014 02:52:38
Eccentricity: 0.0015170
inclination: 99.1752°
perigee height: 985 km
apogee height: 1007 km
right ascension of ascending node: 64.7895°
argument of perigee: 52.2241°
revolutions per day: 13.70920217
mean anomaly at epoch: 57.7864°
orbit number at epoch: 63905

The dashed part of the orbit path shows where the satellite is in the earth's shadow,  

DLR